Weather History for KFET - June, 2013

Change the Weather History Date:

Tuesday, June 25, 2013

  Actual Average (KOMA) Record (KOMA)
Temperature  
Mean Temperature 78 °F 75 °F  
Max Temperature 85 °F 86 °F 103 °F (1954)
Min Temperature 71 °F 64 °F 45 °F (2004)
Degree Days  
Heating Degree Days 0 0  
Month to date heating degree days 15  
Since 1 June heating degree days 15  
Since 1 July heating degree days 6165  
Cooling Degree Days 13 10  
Month to date cooling degree days 177  
Year to date cooling degree days 259  
Since 1 June cooling degree days 177  
Growing Degree Days 28 (Base 50)    
Moisture  
Dew Point 72 °F    
Average Humidity 79    
Maximum Humidity 98    
Minimum Humidity 60    
Precipitation  
Precipitation 0.11 in 0.13 in 3.38 in (1882)
Month to date precipitation 3.55  
Year to date precipitation 14.83  
Snow  
Snow 0.00 in 0.00 in - ()
Month to date snowfall 0.0  
Since 1 July snowfall 26.4  
Snow Depth -    
Sea Level Pressure  
Sea Level Pressure 29.74 in    
Wind  
Wind Speed 7 mph (SE)    
Max Wind Speed 15 mph    
Max Gust Speed 24 mph    
Visibility 10 miles    
Events Rain , Thunderstorm    
T = Trace of Precipitation, MM = Missing Value Source: NWS Daily Summary

Daily Weather History Graph

Daily Weather History Graph

Search for Another Location

Airport or City:

Trip Planner

Search our weather history database for the weather conditions in past years. The results will help you decide how hot, cold, wet, or windy it might be!

Date:

Astronomy

Jun. 25, 2013 Rise Set
Actual Time 5:53 AM CDT 9:03 PM CDT
Civil Twilight 5:19 AM CDT 9:37 PM CDT
Nautical Twilight 4:36 AM CDT 10:21 PM CDT
Astronomical Twilight 3:43 AM CDT 11:13 PM CDT
Moon 10:47 PM CDT (6/25) 8:37 AM CDT (6/25)
Length of Visible Light 16h 18m
Length of Day
15h 10m
Waning Gibbous, 92% of the Moon is Illuminated
Jun 25
Waning Gibbous
Jun 29
Last Quarter
Jul 8
New
Jul 15
First Quarter
Jul 22
Full

Hourly Weather History & Observations

Time (CDT) Temp. Heat Index Dew Point Humidity Pressure Visibility Wind Dir Wind Speed Gust Speed Precip Events Conditions
12:15 AM 78.1 °F - 69.6 °F 75% 29.74 in 10.0 mi SSE 11.5 mph 19.6 mph N/A Thunderstorm Clear
12:35 AM 78.1 °F - 69.4 °F 75% 29.75 in 10.0 mi SSE 13.8 mph - N/A Thunderstorm Scattered Clouds
12:55 AM 77.9 °F - 69.1 °F 74% 29.76 in 10.0 mi SSE 9.2 mph 18.4 mph N/A   Scattered Clouds
1:15 AM 77.5 °F - 69.6 °F 76% 29.79 in 10.0 mi NW 3.5 mph - N/A Thunderstorm Clear
1:35 AM 76.1 °F - 69.8 °F 81% 29.80 in 10.0 mi Calm Calm - N/A Thunderstorm Clear
1:55 AM 74.5 °F - 70.2 °F 86% 29.82 in 10.0 mi West 4.6 mph - N/A   Clear
2:15 AM 74.3 °F - 70.5 °F 88% 29.81 in 10.0 mi Calm Calm - N/A   Scattered Clouds
2:35 AM 72.9 °F - 70.9 °F 93% 29.81 in 10.0 mi SE 4.6 mph - N/A   Scattered Clouds
2:55 AM 72.7 °F - 70.7 °F 93% 29.78 in 10.0 mi SE 3.5 mph - N/A   Clear
3:15 AM 72.5 °F - 70.3 °F 93% 29.77 in 10.0 mi SSE 4.6 mph - N/A   Clear
3:35 AM 71.6 °F - 70.2 °F 95% 29.76 in 10.0 mi Calm Calm - N/A   Clear
3:55 AM 72.3 °F - 70.0 °F 92% 29.76 in 10.0 mi SE 3.5 mph - N/A   Clear
4:15 AM 72.9 °F - 70.0 °F 91% 29.75 in 10.0 mi SE 6.9 mph - N/A   Clear
4:35 AM 73.0 °F - 70.0 °F 90% 29.76 in 10.0 mi SE 4.6 mph - N/A   Clear
4:55 AM 73.0 °F - 69.8 °F 90% 29.76 in 10.0 mi Calm Calm - N/A   Clear
5:15 AM 73.6 °F - 69.6 °F 87% 29.74 in 10.0 mi East 3.5 mph - N/A   Clear
5:35 AM 72.5 °F - 69.8 °F 91% 29.74 in 10.0 mi ESE 4.6 mph - N/A   Clear
5:55 AM 71.4 °F - 69.8 °F 95% 29.75 in 10.0 mi Calm Calm - N/A Thunderstorm Mostly Cloudy
6:15 AM 72.0 °F - 70.3 °F 95% 29.76 in 10.0 mi Calm Calm - N/A   Mostly Cloudy
6:35 AM 72.0 °F - 70.7 °F 96% 29.79 in 10.0 mi WNW 6.9 mph - N/A Rain , Thunderstorm Light Thunderstorms and Rain
6:55 AM 71.8 °F - 71.2 °F 98% 29.81 in 5.0 mi West 5.8 mph - 0.06 in Rain , Thunderstorm Thunderstorms and Rain
7:15 AM 72.5 °F - 70.9 °F 95% 29.81 in 7.0 mi East 3.5 mph - 0.04 in Rain , Thunderstorm Light Thunderstorms and Rain
7:35 AM 72.1 °F - 70.5 °F 95% 29.79 in 10.0 mi ENE 6.9 mph - 0.05 in Rain Light Rain
7:55 AM 71.8 °F - 70.9 °F 97% 29.77 in 10.0 mi SE 5.8 mph - 0.05 in Rain Light Rain
8:15 AM 72.1 °F - 71.2 °F 97% 29.78 in 10.0 mi SE 8.1 mph - N/A Rain Light Rain
8:35 AM 72.5 °F - 71.6 °F 97% 29.79 in 10.0 mi SE 8.1 mph - N/A   Scattered Clouds
8:55 AM 75.2 °F - 70.3 °F 85% 29.79 in 10.0 mi East 4.6 mph - N/A   Clear
9:15 AM 76.5 °F - 69.4 °F 79% 29.77 in 10.0 mi ENE 3.5 mph - N/A   Clear
9:35 AM 78.1 °F - 67.8 °F 71% 29.78 in 10.0 mi SE 8.1 mph - N/A   Clear
9:55 AM 79.2 °F - 66.7 °F 66% 29.77 in 10.0 mi SE 5.8 mph - N/A   Clear
10:15 AM 79.5 °F - 66.9 °F 65% 29.77 in 10.0 mi ESE 6.9 mph - N/A   Clear
10:35 AM 80.2 °F 83.0 °F 68.5 °F 67% 29.77 in 10.0 mi ESE 6.9 mph - N/A   Clear
10:55 AM 80.4 °F 83.0 °F 67.8 °F 65% 29.77 in 10.0 mi ESE 8.1 mph - N/A   Clear
11:15 AM 81.1 °F 83.5 °F 67.1 °F 62% 29.76 in 10.0 mi East 10.4 mph - N/A   Clear
11:35 AM 81.9 °F 84.2 °F 66.9 °F 60% 29.75 in 10.0 mi ESE 12.7 mph - N/A   Clear
11:55 AM 83.1 °F 86.6 °F 69.1 °F 62% 29.74 in 10.0 mi East 13.8 mph - N/A   Clear
12:15 PM 83.3 °F 86.6 °F 68.7 °F 61% 29.74 in 10.0 mi ESE 12.7 mph 18.4 mph N/A   Clear
12:35 PM 83.7 °F 87.5 °F 69.6 °F 62% 29.73 in 10.0 mi ESE 13.8 mph 18.4 mph N/A   Clear
12:55 PM 84.2 °F 88.7 °F 70.5 °F 63% 29.72 in 10.0 mi SE 15.0 mph 24.2 mph N/A   Clear
1:15 PM 85.1 °F 91.1 °F 72.0 °F 65% 29.72 in 10.0 mi SE 12.7 mph 19.6 mph N/A   Clear
1:35 PM 84.0 °F 89.3 °F 71.6 °F 66% 29.72 in 10.0 mi SE 15.0 mph 20.7 mph N/A   Scattered Clouds
1:55 PM 83.3 °F 88.4 °F 71.6 °F 68% 29.72 in 10.0 mi SSE 12.7 mph 18.4 mph N/A   Mostly Cloudy
2:15 PM 83.5 °F 88.8 °F 71.8 °F 68% 29.71 in 10.0 mi South 10.4 mph - N/A   Overcast
2:35 PM 83.1 °F 88.6 °F 72.5 °F 70% 29.71 in 10.0 mi South 6.9 mph - N/A   Overcast
2:55 PM 83.8 °F 89.8 °F 72.9 °F 69% 29.71 in 10.0 mi South 8.1 mph - N/A   Overcast
3:15 PM 84.9 °F 91.8 °F 73.4 °F 68% 29.71 in 10.0 mi South 10.4 mph 16.1 mph N/A   Mostly Cloudy
3:35 PM 84.9 °F 92.1 °F 73.6 °F 69% 29.71 in 10.0 mi South 8.1 mph - N/A   Mostly Cloudy
3:55 PM 84.7 °F 91.4 °F 73.0 °F 68% 29.71 in 10.0 mi South 8.1 mph - N/A   Mostly Cloudy
4:15 PM 83.3 °F 89.6 °F 73.6 °F 72% 29.70 in 10.0 mi SSE 3.5 mph - N/A   Overcast
4:35 PM 83.3 °F 89.9 °F 73.8 °F 73% 29.70 in 10.0 mi SSE 4.6 mph - N/A   Mostly Cloudy
4:55 PM 84.0 °F 92.2 °F 75.2 °F 75% 29.70 in 10.0 mi SE 5.8 mph - N/A   Overcast
5:15 PM 83.7 °F 91.0 °F 74.7 °F 74% 29.70 in 10.0 mi ESE 4.6 mph - N/A   Overcast
5:35 PM 85.3 °F 93.7 °F 75.0 °F 71% 29.69 in 10.0 mi ESE 8.1 mph - N/A   Scattered Clouds
5:55 PM 84.6 °F 92.8 °F 75.2 °F 73% 29.69 in 10.0 mi East 9.2 mph - N/A   Mostly Cloudy
6:15 PM 84.6 °F 93.2 °F 75.4 °F 74% 29.69 in 10.0 mi ESE 6.9 mph - N/A   Scattered Clouds
6:35 PM 84.7 °F 93.6 °F 75.6 °F 74% 29.68 in 10.0 mi ESE 6.9 mph - N/A   Scattered Clouds
6:55 PM 85.1 °F 94.5 °F 75.9 °F 74% 29.68 in 10.0 mi East 8.1 mph - N/A   Clear
7:15 PM 84.7 °F 94.8 °F 76.6 °F 77% 29.68 in 10.0 mi ESE 6.9 mph - N/A   Clear
7:35 PM 84.9 °F 95.3 °F 76.8 °F 77% 29.68 in 10.0 mi SE 4.6 mph - N/A   Clear
7:55 PM 84.2 °F 93.4 °F 76.5 °F 77% 29.68 in 10.0 mi SE 6.9 mph - N/A   Clear
8:15 PM 83.8 °F 92.5 °F 76.1 °F 77% 29.68 in 10.0 mi ESE 8.1 mph - N/A   Clear
8:35 PM 83.3 °F 91.4 °F 75.9 °F 78% 29.68 in 10.0 mi ESE 6.9 mph - N/A   Clear
8:55 PM 82.4 °F 90.1 °F 76.1 °F 81% 29.69 in 10.0 mi East 4.6 mph - N/A   Clear
9:15 PM 81.9 °F 89.2 °F 76.1 °F 83% 29.69 in 10.0 mi ESE 4.6 mph - N/A   Scattered Clouds
9:35 PM 81.3 °F 88.0 °F 75.9 °F 84% 29.69 in 10.0 mi East 4.6 mph - N/A   Scattered Clouds
9:55 PM 81.0 °F 87.1 °F 75.7 °F 84% 29.70 in 10.0 mi East 4.6 mph - N/A   Clear
10:15 PM 81.0 °F 86.9 °F 75.4 °F 83% 29.70 in 10.0 mi East 3.5 mph - N/A   Clear
10:35 PM 80.8 °F 86.7 °F 75.6 °F 84% 29.71 in 10.0 mi East 4.6 mph - N/A   Mostly Cloudy
10:55 PM 79.9 °F - 75.6 °F 87% 29.71 in 10.0 mi SE 4.6 mph - N/A   Scattered Clouds
11:15 PM 79.3 °F - 75.4 °F 88% 29.70 in 10.0 mi Calm Calm - N/A   Clear
11:35 PM 79.3 °F - 75.2 °F 87% 29.70 in 10.0 mi ESE 3.5 mph - N/A   Clear
11:55 PM 78.1 °F - 75.4 °F 91% 29.70 in 10.0 mi Calm Calm - N/A   Clear